This demonstration page uses our WeatherBlox Daily Observations layout. Learn more.

Left ArrowRight Arrow

Hourly Observations for March 6, 2021

Temp ( °F °C ) Dew Point ( °F °C ) Humidity (%) Winds ( mph kmh ) Pressure ( in mb ) Visibility ( mi km ) Precip ( " mm )
12:15 am 00:15 Clear 40 4.6 33 0.5 75 75 S 6 9 30.28 1025 10 16 N/A
12:35 am 00:35 Clear 40 4.6 33 0.5 75 75 S 8 13 30.28 1025 10 16 N/A
12:55 am 00:55 Clear 40 4.6 33 0.5 75 75 S 6 9 30.27 1025 10 16 N/A
1:15 am 01:15 Clear 42 5.5 33 0.6 71 71 S 8 13 30.26 1025 10 16 N/A
1:35 am 01:35 Clear 40 4.3 32 0.1 74 74 S 8 13 30.28 1026 10 16 N/A
1:55 am 01:55 Clear 38 3.5 32 undefined 78 78 S 6 9 30.28 1025 10 16 N/A
2:15 am 02:15 Clear 38 3.2 32 undefined 80 80 S 5 7 30.29 1026 10 16 N/A
2:35 am 02:35 Clear 37 2.9 32 -0.1 81 81 S 3 6 30.29 1026 10 16 N/A
2:55 am 02:55 Clear 38 3.3 32 undefined 79 79 S 7 11 30.27 1025 10 16 N/A
3:15 am 03:15 Clear 40 4.7 33 0.4 74 74 S 7 11 30.25 1024 10 16 N/A
3:35 am 03:35 Clear 39 3.9 32 undefined 76 76 SSW 7 11 30.26 1025 10 16 N/A
3:55 am 03:55 Clear 38 3.6 32 undefined 78 78 SSW 8 13 30.25 1024 10 16 N/A
4:15 am 04:15 Clear 38 3.4 32 -0.2 78 78 SSW 7 11 30.25 1024 10 16 N/A
4:35 am 04:35 Clear 38 3.2 32 -0.2 79 79 SSW 6 9 30.26 1025 10 16 N/A
4:55 am 04:55 Clear 38 3.3 32 -0.2 78 78 SSW 5 7 30.25 1025 10 16 N/A
5:15 am 05:15 Clear 38 3.3 31 -0.3 78 78 SSW 7 11 30.25 1025 10 16 N/A
5:35 am 05:35 Clear 38 3.1 31 -0.5 77 77 SSW 7 11 30.26 1025 10 16 N/A
5:55 am 05:55 Clear 38 3.3 31 -0.6 76 76 SSW 8 13 30.24 1024 10 16 N/A
6:15 am 06:15 Clear 36 2 30 -1.3 79 79 N N/A 30.26 1025 10 16 N/A
6:35 am 06:35 Clear 36 2.1 30 -0.9 81 81 SSW 6 9 30.26 1025 10 16 N/A
6:55 am 06:55 Clear 36 2 30 -1.1 80 80 SSW 6 9 30.26 1025 10 16 N/A
7:15 am 07:15 Sunny 36 2.2 30 -1 80 80 SSW 6 9 30.25 1025 10 16 N/A
7:35 am 07:35 Sunny 35 1.9 30 -1 81 81 SSW 6 9 30.26 1025 10 16 N/A
7:55 am 07:55 Sunny 37 2.9 31 -0.5 79 79 S 5 7 30.26 1025 10 16 N/A
8:15 am 08:15 Sunny 39 3.8 32 undefined 77 77 SSW 5 7 30.25 1024 10 16 N/A
8:35 am 08:35 Sunny 41 4.9 33 0.4 73 73 SSW 5 7 30.24 1024 10 16 N/A
8:55 am 08:55 Sunny 44 6.6 34 1 68 68 SSW 3 6 30.22 1023 10 16 N/A
9:15 am 09:15 Sunny 47 8.4 34 1.1 60 60 SW 6 9 30.21 1023 10 16 N/A
9:35 am 09:35 Sunny 49 9.7 34 1.2 56 56 SW 7 11 30.20 1023 10 16 N/A
9:55 am 09:55 Sunny 52 11.1 34 1.1 50 50 SW 7 11 30.18 1022 10 16 N/A
10:15 am 10:15 Sunny 55 12.7 33 0.6 44 44 WSW 7 11 30.17 1022 10 16 N/A
10:35 am 10:35 Sunny 57 13.9 33 0.7 41 41 SW 9 15 30.15 1021 10 16 N/A
10:55 am 10:55 Sunny 59 14.8 32 0.2 37 37 SW 10 17 30.14 1021 10 16 N/A
11:15 am 11:15 Sunny 60 15.5 33 0.4 36 36 SW 12 19 30.13 1020 10 16 N/A
11:35 am 11:35 Sunny 61 16.2 33 0.4 34 34 SW 8 13 30.12 1020 10 16 N/A
11:55 am 11:55 Sunny 63 17.4 33 0.5 32 32 SW 8 13 30.10 1019 10 16 N/A
12:15 pm 12:15 Sunny 65 18.2 33 0.3 30 30 SW 10 17 30.09 1019 10 16 N/A
12:35 pm 12:35 Sunny 66 18.7 32 undefined 29 29 SSW 14 22 30.08 1019 10 16 N/A
12:55 pm 12:55 Sunny 67 19.2 31 -0.3 27 27 SSW 14 22 30.05 1018 10 16 N/A
1:15 pm 13:15 Sunny 68 20.1 30 -0.9 24 24 S 18 30 30.04 1017 10 16 N/A
1:35 pm 13:35 Sunny 69 20.3 30 -0.9 24 24 S 15 24 30.01 1016 10 16 N/A
1:55 pm 13:55 Sunny 70 20.9 29 -1.7 22 22 SSW 14 22 30.00 1016 10 16 N/A
2:15 pm 14:15 Sunny 70 20.9 28 -2.5 21 21 S 14 22 29.99 1016 10 16 N/A
2:35 pm 14:35 Sunny 69 20.8 26 -3.5 19 19 S 15 24 29.98 1015 10 16 N/A
2:55 pm 14:55 Sunny 69 20.8 25 -3.7 19 19 S 13 20 29.98 1015 10 16 N/A
3:15 pm 15:15 Sunny 70 21 25 -4.1 18 18 S 15 24 29.97 1015 10 16 N/A
3:35 pm 15:35 Sunny 70 21 25 -4.1 18 18 S 18 30 29.97 1015 10 16 N/A
3:55 pm 15:55 Sunny 70 20.9 26 -3.5 19 19 S 18 30 29.97 1015 10 16 N/A
4:15 pm 16:15 Sunny 69 20.6 26 -3.3 20 20 SSW 18 30 29.96 1015 10 16 N/A
4:35 pm 16:35 Sunny 68 20.2 26 -3.2 20 20 SSW 21 33 29.97 1015 10 16 N/A
4:55 pm 16:55 Sunny 68 20.1 28 -2.2 22 22 S 21 33 29.97 1015 10 16 N/A
5:15 pm 17:15 Sunny 67 19.7 27 -2.8 22 22 SSW 20 31 29.96 1015 10 16 N/A
5:35 pm 17:35 Sunny 67 19.2 28 -2.3 23 23 S 15 24 29.96 1015 10 16 N/A
5:55 pm 17:55 Sunny 65 18.5 28 -2.4 24 24 S 13 20 29.97 1015 10 16 N/A
6:15 pm 18:15 Sunny 64 17.6 28 -2.3 26 26 S 13 20 29.98 1015 10 16 N/A
6:35 pm 18:35 Clear 60 15.3 29 -1.4 32 32 S 9 15 30.00 1016 10 16 N/A
6:55 pm 18:55 Clear 56 13.2 30 -1.1 37 37 S 9 15 30.01 1016 10 16 N/A
7:15 pm 19:15 Clear 54 12.2 31 -0.7 41 41 S 9 15 30.03 1017 10 16 N/A
7:35 pm 19:35 Clear 53 11.7 31 -0.6 43 43 S 10 17 30.04 1017 10 16 N/A
7:55 pm 19:55 Clear 51 10.8 31 -0.5 46 46 S 10 17 30.05 1017 10 16 N/A
8:15 pm 20:15 Clear 50 10 31 -0.5 48 48 S 9 15 30.05 1018 10 16 N/A
8:35 pm 20:35 Clear 50 9.8 31 -0.7 48 48 S 10 17 30.05 1018 10 16 N/A
8:55 pm 20:55 Clear 49 9.7 31 -0.5 49 49 S 13 20 30.06 1018 10 16 N/A
9:15 pm 21:15 Clear 50 10.1 31 -0.3 49 49 S 14 22 30.05 1018 10 16 N/A
9:35 pm 21:35 Clear 49 9.6 32 undefined 52 52 S 12 19 30.07 1018 10 16 N/A
9:55 pm 21:55 Clear 49 9.7 33 0.3 52 52 S 14 22 30.07 1018 10 16 N/A
10:15 pm 22:15 Clear 50 10.2 32 0.2 50 50 S 14 22 30.06 1018 10 16 N/A
10:35 pm 22:35 Clear 49 9.6 33 0.3 53 53 S 15 24 30.06 1018 10 16 N/A
10:55 pm 22:55 Clear 49 9.5 33 0.4 53 53 S 15 24 30.06 1018 10 16 N/A
11:15 pm 23:15 Clear 49 9.5 33 0.6 54 54 S 15 24 30.05 1018 10 16 N/A
11:35 pm 23:35 Clear 48 9.1 34 1 57 57 S 14 22 30.05 1018 10 16 N/A
11:55 pm 23:55 Clear 47 8.5 34 1.1 60 60 S 13 20 30.07 1018 10 16 N/A

Powered by AerisWeather